Terminal Aerodrome Forecast
Issued by NWS St Louis, MO

Home | Current Version | Previous Version | Text Only | Print | Product List | Glossary On
Versions: 1 2 3 4 5 6 7 8 9 10 11 12 13 14 15 16 17 18 19 20 21 22 23 24
000
FTUS43 KLSX 161700
TAFSTL
TAF
KSTL 161720Z 1618/1724 17020G28KT P6SM BKN250
     FM170000 16013KT P6SM BKN250
     FM171500 22009KT P6SM SCT040 BKN150
     FM172100 28007KT P6SM BKN070=

USA.gov is the U.S. government's official web portal to all federal, state and local government web resources and services.